Theta_e
353 353 353 354 355 354 354 352 347 344 338 330 327 327 329 333 335 335 332 331 332 332 331 331 330 331 330 329 328 326 322 320 320 322 324 325 326 326 326 324 323 322 323 324 324 324 325 326 326 328 329 329 327 327 328 328 329 329 330 330 331 333 331
353 352 353 354 354 354 354 350 346 343 335 329 328 329 332 335 335 333 331 331 331 332 331 330 330 331 329 329 328 325 322 320 321 322 325 328 328 326 325 324 324 323 324 324 324 324 324 325 326 327 327 327 326 326 327 329 329 329 330 329 329 330 330
353 353 353 354 354 354 353 348 345 342 336 333 333 333 335 336 333 330 329 329 331 330 330 330 331 331 329 328 327 325 321 320 321 324 327 329 328 325 323 323 324 325 325 325 325 325 325 325 325 326 327 327 327 327 327 328 328 328 328 328 328 328 329
355 353 353 354 355 355 352 348 343 341 338 339 338 336 336 334 330 327 327 329 330 329 330 330 331 330 328 328 328 325 321 320 320 323 325 327 324 322 323 325 325 326 326 326 326 326 326 326 326 327 328 327 327 328 327 327 328 327 327 329 331 331 331
356 354 354 354 355 355 354 348 342 340 340 342 341 336 333 329 326 327 327 328 329 330 330 331 332 330 328 328 328 325 321 319 320 323 325 325 323 322 323 325 326 325 325 326 326 325 325 326 326 327 328 328 327 328 328 329 331 331 330 331 332 332 332
356 355 353 353 354 355 353 347 341 340 341 343 342 335 331 329 330 332 331 328 328 330 330 331 331 329 328 328 327 324 321 319 321 323 324 323 323 323 324 325 326 326 326 325 324 324 324 324 325 326 327 328 328 328 328 328 330 331 331 331 331 331 331
355 355 353 352 353 354 352 346 341 341 340 343 342 334 331 334 335 337 336 333 331 332 332 331 330 327 327 328 326 323 320 320 323 324 324 324 323 323 324 325 325 326 326 325 324 324 324 324 325 326 326 327 327 327 326 326 326 327 329 331 331 329 329
355 355 354 353 352 352 351 347 342 341 342 343 342 337 334 336 336 336 337 337 336 336 336 335 334 329 324 324 324 321 319 321 324 325 324 323 323 325 327 327 327 325 323 323 323 322 322 324 325 326 326 327 327 326 326 326 326 326 327 328 328 327 328
355 355 354 353 351 350 350 347 344 343 343 341 339 336 332 333 334 336 337 336 337 337 335 335 337 333 326 321 321 320 319 320 323 324 325 325 326 329 330 330 330 328 324 322 322 322 322 323 325 326 326 326 326 326 326 326 326 326 326 326 326 326 328
355 356 356 354 351 350 350 348 346 344 341 339 335 330 327 328 331 334 335 335 336 335 334 333 335 335 329 321 319 320 319 320 323 324 326 327 329 330 330 330 330 329 327 324 322 322 322 323 325 326 326 325 325 326 326 326 327 326 326 326 327 327 327
355 356 356 353 351 350 349 348 346 342 337 336 333 328 326 327 329 330 330 332 334 332 334 334 334 335 331 324 322 322 320 321 324 326 327 328 329 329 329 328 328 328 328 327 325 325 325 325 326 327 327 326 325 326 326 326 326 326 326 327 326 327 327
356 357 355 353 351 351 350 349 346 340 337 336 331 326 326 328 329 329 326 327 331 332 333 334 333 332 329 327 328 326 323 324 326 327 328 328 328 328 327 327 327 328 328 328 327 328 328 329 329 328 327 327 326 326 326 326 326 326 326 326 326 326 326
355 356 354 352 352 351 350 348 345 340 337 334 329 326 327 328 329 327 322 323 328 330 332 331 327 325 322 323 326 325 323 325 327 328 328 329 328 327 327 327 328 327 327 327 327 327 328 330 330 329 329 328 326 325 325 325 326 326 326 326 326 326 325
353 353 352 352 351 351 350 347 345 341 336 333 329 326 327 329 328 324 320 322 325 329 333 331 324 321 319 320 321 321 321 324 327 328 327 326 325 325 325 326 326 326 326 326 327 327 327 329 330 329 328 327 326 325 325 325 325 326 326 326 326 326 325
351 351 351 351 351 351 349 347 345 341 336 333 330 327 327 328 326 322 320 322 324 328 333 330 322 319 320 320 321 320 320 322 325 326 325 325 325 325 325 326 326 326 326 326 326 327 327 328 327 326 326 327 327 326 325 325 325 325 326 326 327 326 324
351 350 349 350 350 350 348 347 345 340 337 335 330 327 328 328 325 321 320 323 324 326 327 324 321 320 320 321 321 321 321 322 323 324 325 325 326 326 326 327 326 326 325 325 325 326 326 325 323 325 327 329 330 328 327 326 325 324 324 325 326 325 323
349 348 348 349 349 350 348 346 344 340 337 336 332 328 329 327 324 321 321 325 330 330 326 321 320 321 321 322 322 322 323 324 325 325 326 327 327 326 327 326 325 324 325 325 326 326 326 325 325 327 329 329 330 329 328 328 326 323 323 323 325 324 321
347 347 347 348 348 349 348 346 343 340 338 335 332 330 329 327 323 321 322 325 330 332 327 321 320 321 322 323 323 323 324 325 327 327 328 328 328 327 327 325 323 324 326 327 327 326 325 325 327 328 329 329 330 329 329 329 327 323 322 322 323 323 320
346 346 347 347 348 347 347 345 343 340 338 336 333 330 329 326 323 322 323 324 325 326 324 321 321 321 322 323 323 324 325 326 328 328 328 329 328 327 326 324 324 325 326 327 327 326 326 326 327 329 329 329 329 329 328 328 326 323 321 322 323 322 320
345 346 346 346 347 347 346 344 342 340 338 337 333 330 329 326 323 322 324 326 325 323 322 322 322 322 323 323 323 325 326 327 329 329 329 329 328 326 325 324 324 325 326 327 327 327 327 327 327 328 328 328 328 328 328 327 325 322 321 321 323 322 321
344 346 346 345 347 346 345 343 341 338 338 336 332 330 329 326 324 323 325 326 325 323 322 322 322 322 323 323 323 325 327 328 329 329 328 328 327 326 325 325 325 325 326 327 326 327 326 326 327 327 327 327 327 327 327 327 325 322 321 321 322 324 323
343 344 345 346 346 345 343 341 339 337 336 334 331 330 329 326 323 324 328 329 325 322 323 323 322 323 323 324 324 325 327 330 331 331 330 329 328 327 326 326 326 325 326 326 326 326 325 325 325 326 326 326 326 326 327 327 325 323 321 320 322 325 324
342 343 344 345 343 342 340 338 337 336 334 332 331 329 328 326 324 325 329 332 328 322 323 324 323 323 324 324 324 326 329 331 332 332 331 331 329 328 326 326 326 326 326 326 326 325 324 324 325 325 325 326 326 327 328 327 326 324 322 320 322 325 325
341 342 342 342 341 339 337 336 335 334 332 331 331 329 328 326 326 325 327 330 329 326 324 324 324 324 324 324 325 327 329 329 330 331 332 331 330 328 327 326 325 326 326 326 326 325 324 325 325 325 326 325 326 326 326 326 326 325 322 320 322 325 325
339 340 339 338 337 336 334 334 333 332 331 331 330 329 328 327 327 327 327 328 330 331 329 326 325 325 325 326 327 327 326 327 327 328 330 331 329 328 327 327 326 326 326 327 326 326 325 325 325 325 326 325 325 326 326 326 327 325 323 321 321 324 323
336 336 336 336 334 333 332 332 331 331 331 330 329 329 329 328 328 328 328 327 330 333 332 327 324 325 327 328 328 326 325 325 324 324 327 329 329 328 329 328 327 326 326 326 325 325 325 325 325 326 326 325 326 326 326 327 326 325 323 321 320 320 320
333 333 334 334 333 332 332 331 331 331 330 330 330 330 329 329 328 328 328 328 328 331 331 328 326 326 326 326 327 326 325 325 324 323 325 328 329 328 328 328 327 326 326 325 325 325 325 325 326 326 326 326 326 326 327 326 324 323 323 322 320 319 320
332 332 332 332 331 332 332 332 331 331 331 331 330 330 329 329 329 328 328 328 328 328 330 329 327 327 327 326 326 326 325 325 324 323 324 327 328 327 327 327 327 325 325 324 324 324 325 325 326 326 326 326 326 326 327 327 324 321 322 323 321 321 321
332 332 332 331 332 331 330 331 331 330 331 332 330 330 329 329 330 329 328 328 328 328 329 328 327 327 328 327 327 326 326 325 325 324 324 326 326 325 326 328 327 325 324 323 323 324 325 325 326 326 326 326 326 325 327 328 326 322 322 323 323 322 322
332 331 332 334 334 332 330 329 329 329 329 330 330 329 329 329 329 329 328 329 329 328 328 327 326 327 328 328 328 327 326 326 327 326 326 326 325 325 327 327 326 326 326 324 324 325 325 325 326 327 326 326 326 326 326 327 327 325 323 322 323 323 322
332 332 332 333 333 331 330 329 330 330 329 330 329 330 330 329 329 329 329 330 329 329 328 328 327 327 328 329 328 328 327 328 328 327 325 325 327 328 328 327 326 327 326 326 326 326 326 325 326 326 326 325 326 326 325 326 328 328 324 321 322 323 323
331 331 331 331 331 330 329 329 330 330 329 330 329 328 328 329 329 329 330 330 330 329 329 328 328 328 328 329 329 329 329 329 328 326 323 324 327 328 327 327 326 326 327 327 326 326 326 326 326 326 326 325 325 325 325 326 327 326 322 320 322 323 323
330 330 330 329 328 328 327 327 327 327 328 330 330 328 327 328 328 328 330 330 330 330 328 328 328 328 328 328 328 329 329 328 327 326 324 325 327 327 327 327 326 325 326 326 326 327 326 326 326 326 325 325 325 324 325 325 325 323 320 320 321 322 322
328 328 327 326 326 326 326 325 326 324 325 327 327 326 326 327 329 330 330 330 331 332 330 328 328 328 327 327 329 330 330 327 326 325 324 326 328 327 326 326 325 326 327 326 325 325 325 325 326 325 324 324 324 323 323 323 323 321 321 321 321 320 321
326 325 325 324 325 324 323 323 322 322 322 324 324 325 325 325 327 330 330 330 330 331 329 327 326 325 325 328 331 331 329 327 327 327 326 327 328 327 325 325 324 325 325 324 322 322 322 323 324 323 322 323 322 322 322 322 322 321 321 321 320 320 320
324 324 323 323 322 321 320 319 320 321 323 324 324 324 325 325 326 328 330 331 330 328 326 324 324 325 327 330 331 330 328 328 327 328 328 328 326 326 325 323 322 322 322 322 321 321 321 321 322 321 322 322 321 321 321 321 321 321 320 320 319 319 320
323 322 321 319 319 318 318 319 321 322 323 324 324 324 324 325 325 326 328 328 327 325 323 323 324 326 328 329 330 329 328 327 325 326 327 327 326 326 327 324 322 321 321 321 321 321 321 321 322 322 322 322 321 321 321 320 320 320 319 319 319 319 320
320 319 318 318 319 319 320 321 322 323 323 323 323 323 323 324 324 324 325 325 323 323 323 324 325 327 329 329 329 329 327 325 325 326 327 327 326 326 326 324 322 322 321 321 321 321 321 321 322 322 321 321 321 320 320 319 319 319 318 318 318 318 319
Wind_Speed
25 24 23 22 22 22 22 23 24 25 25 24 21 20 19 16 13 11 9 8 8 9 10 11 12 13 14 13 13 13 13 12 11 10 10 10 11 12 13 14 15 16 16 16 17 16 15 14 13 13 13 14 15 15 15 15 15 16 16 16 16 16 18
26 25 23 22 22 23 23 24 25 25 25 24 21 20 19 17 14 11 9 9 9 10 11 12 12 13 13 13 13 12 12 12 11 10 9 10 10 11 12 13 14 15 15 15 16 15 15 15 14 13 13 14 14 14 15 15 16 16 17 17 18 18 18
25 25 24 23 23 23 25 26 26 25 24 23 21 20 19 17 13 10 9 10 11 12 12 12 12 12 12 13 13 12 12 12 11 10 9 9 9 10 11 12 13 13 13 14 14 15 15 15 15 15 14 13 12 13 14 14 16 17 18 18 18 18 18
24 25 24 23 23 23 25 28 29 26 23 21 21 20 18 15 12 10 11 11 12 12 12 12 12 12 12 13 13 12 12 12 11 10 9 9 9 9 10 10 11 11 11 12 13 14 14 15 15 14 13 13 12 12 14 15 16 18 19 18 17 16 17
22 24 24 23 23 23 25 29 29 26 22 20 20 19 16 14 12 12 12 12 12 12 11 12 12 12 13 13 13 12 12 12 11 10 9 9 9 9 9 9 10 10 10 10 11 13 14 15 15 14 13 12 13 13 14 15 15 15 16 16 15 15 15
22 25 25 24 25 24 26 29 28 25 22 19 20 19 16 14 13 12 12 12 11 11 11 12 12 13 13 13 13 13 12 12 11 9 9 8 8 8 8 9 9 10 10 10 11 12 14 15 15 15 14 13 13 14 15 16 15 14 14 15 15 15 15
21 24 25 25 25 25 26 26 25 23 21 19 20 19 15 14 13 12 12 11 10 10 10 11 12 12 13 13 14 13 12 12 11 9 8 8 8 8 8 9 10 10 10 11 11 12 13 14 15 15 15 15 15 16 17 18 18 16 15 14 15 15 16
20 23 25 25 25 25 25 25 24 22 21 20 20 18 16 15 14 12 12 11 10 10 9 9 11 12 13 13 13 13 12 12 11 9 9 8 8 8 9 10 11 12 11 11 12 13 13 14 14 15 16 16 16 17 18 18 17 16 15 15 15 16 17
18 20 23 24 25 25 25 25 24 23 23 24 23 20 18 16 14 12 11 10 10 10 9 9 10 12 13 13 12 12 12 12 11 10 9 9 9 9 9 10 12 13 14 13 14 14 14 14 14 15 16 16 16 17 18 18 16 15 15 16 17 18 18
18 19 21 23 24 25 25 25 25 27 28 28 25 22 19 17 15 13 11 10 10 9 9 10 10 11 12 13 12 12 12 12 11 10 9 9 9 9 9 10 11 13 15 16 16 15 15 14 14 14 14 15 16 16 17 17 16 16 16 17 18 18 19
17 18 20 23 25 26 26 26 30 32 31 29 26 23 20 17 15 13 11 10 10 9 9 10 10 10 11 12 11 11 12 11 10 10 9 9 9 9 10 11 12 13 15 17 17 16 16 15 15 15 15 15 16 16 17 18 18 19 18 18 18 19 21
17 18 20 23 25 26 27 29 34 35 32 29 26 23 20 17 14 12 11 10 9 9 10 11 10 11 11 11 10 11 12 11 10 10 9 9 10 10 11 12 13 14 14 14 16 16 16 15 16 15 15 16 17 17 19 20 21 20 20 19 20 21 22
15 17 19 22 25 26 27 32 35 34 31 29 26 22 20 17 14 13 12 9 8 9 11 11 12 12 11 10 10 11 11 10 10 10 10 10 11 12 12 13 13 14 14 14 15 15 15 16 16 16 16 16 17 18 19 20 21 21 20 20 21 23 24
15 16 18 22 24 26 30 35 36 33 31 29 26 23 19 16 15 14 12 9 9 11 11 11 12 11 11 11 10 11 10 10 10 10 10 11 12 13 14 14 14 15 15 15 15 16 16 16 16 17 17 16 16 18 19 19 20 20 20 20 21 22 23
15 16 18 21 24 26 30 35 36 34 32 29 26 23 19 17 16 14 12 10 11 11 11 12 12 10 10 11 10 10 10 10 10 10 10 11 12 14 14 14 14 15 15 16 16 16 17 16 16 17 17 16 16 16 18 18 18 18 19 19 21 22 22
15 16 19 21 23 25 29 33 36 35 32 30 27 23 20 18 17 14 12 11 12 12 11 12 11 10 10 10 10 9 9 10 10 10 11 12 13 15 14 14 14 15 16 17 17 16 17 17 17 17 16 15 15 15 17 17 18 19 19 19 20 22 21
15 17 19 20 21 23 26 31 35 35 33 31 27 22 20 19 17 15 13 13 14 13 12 12 11 10 9 9 9 10 9 9 10 10 11 12 14 15 14 13 14 16 17 17 16 16 16 17 17 16 15 14 14 15 16 17 19 20 20 19 20 21 20
16 17 19 20 22 23 25 30 34 34 33 31 27 23 21 20 18 16 15 16 15 13 12 13 11 10 9 9 10 10 10 9 10 11 11 13 15 15 13 13 15 16 16 15 15 15 16 16 16 15 14 14 14 15 15 17 19 20 20 20 20 19 19
14 16 18 19 21 24 26 30 33 33 32 30 27 24 22 21 19 17 17 17 14 13 14 13 12 11 10 10 10 10 10 10 10 11 12 13 15 14 12 13 14 14 14 13 14 14 15 15 14 14 14 15 15 16 16 17 19 20 20 20 19 17 17
12 13 15 17 19 21 24 28 31 31 31 29 26 23 22 22 20 18 19 17 15 14 14 13 12 12 11 11 10 10 10 10 11 12 13 14 15 14 12 12 12 12 12 12 12 13 14 14 14 15 15 15 15 16 17 17 20 22 20 19 18 16 16
11 12 13 15 17 19 23 29 32 31 30 27 25 24 24 23 21 21 21 20 17 15 14 14 14 13 12 11 11 10 10 11 12 13 14 14 15 14 12 11 11 12 12 11 12 12 13 14 14 15 16 15 15 16 16 17 20 22 21 19 17 16 17
9 11 13 14 17 20 25 30 30 28 27 26 25 24 24 23 23 23 23 22 19 17 15 15 15 14 13 12 10 10 11 11 12 13 14 13 13 12 11 11 11 12 13 13 13 13 13 14 13 14 15 15 15 16 16 16 19 22 22 19 17 17 18
7 10 12 13 16 21 25 26 25 24 24 24 24 24 24 24 25 25 24 22 20 18 16 16 16 16 14 12 11 11 11 12 13 14 14 13 13 12 11 11 12 12 13 14 13 12 13 13 13 13 14 14 15 15 15 16 19 21 21 19 18 18 19
7 9 12 14 17 20 22 21 21 22 22 22 22 22 24 25 27 27 27 25 22 20 18 17 17 16 15 13 11 11 12 14 15 16 15 13 13 12 11 11 12 12 13 14 13 13 12 12 13 13 14 15 14 15 16 16 17 19 20 18 17 18 19
10 10 13 16 17 19 19 19 20 21 21 21 22 22 24 26 27 27 28 27 24 20 19 19 18 16 15 14 13 14 15 15 15 16 15 14 13 12 11 12 12 12 12 13 12 12 12 12 13 14 15 15 14 15 16 16 15 18 19 17 16 17 18
13 13 15 17 17 17 17 18 19 20 20 20 21 22 24 27 27 28 28 28 25 22 22 22 18 16 15 15 15 16 15 14 15 15 15 15 14 13 12 12 12 11 12 12 11 11 11 12 14 15 15 15 14 14 14 14 14 17 18 16 16 16 18
15 16 16 17 16 16 16 17 17 18 19 20 21 23 25 26 27 27 28 28 27 25 25 23 19 16 16 16 17 18 16 14 14 14 14 15 15 14 14 12 12 12 12 12 11 11 11 12 14 15 15 15 14 13 13 14 15 16 17 17 16 16 17
18 17 16 16 15 15 15 16 17 18 19 20 22 24 25 27 27 25 26 28 29 28 26 25 21 18 17 18 19 19 17 15 14 14 14 15 16 17 16 14 13 13 13 12 12 12 12 13 14 15 15 14 14 13 12 14 16 16 16 17 16 16 17
19 18 17 15 14 15 15 16 17 19 20 21 24 25 26 27 26 25 25 26 27 27 27 26 23 20 19 20 21 20 18 16 15 14 14 15 17 19 18 16 14 13 13 13 12 12 13 14 14 15 15 14 14 13 11 12 15 17 16 17 17 17 17
18 18 17 14 12 14 17 16 17 18 19 22 24 25 26 27 25 24 24 23 23 25 27 27 24 22 21 22 23 22 19 16 15 14 14 15 17 19 19 17 15 13 13 14 12 11 13 14 14 14 14 14 14 14 12 11 13 15 17 17 17 17 17
17 16 16 13 12 14 16 16 16 18 20 22 24 24 24 24 24 24 24 21 19 22 25 25 24 23 23 24 24 21 18 16 16 15 14 15 16 18 18 17 15 13 12 12 11 11 13 13 13 13 13 14 14 13 13 12 11 12 16 18 17 16 17
14 14 13 12 12 12 12 13 15 17 19 20 21 22 22 22 23 23 21 19 19 20 22 22 23 24 24 24 23 20 18 17 18 16 15 16 17 18 18 16 14 13 12 11 11 11 12 12 12 12 12 13 13 13 13 12 11 13 17 18 16 15 15
12 11 10 10 10 10 11 13 15 16 17 16 18 21 21 20 21 20 17 17 18 19 20 22 23 23 23 22 21 19 18 19 20 17 16 15 16 16 16 15 14 13 12 11 11 10 10 11 12 12 12 13 13 13 12 11 12 16 18 16 15 15 15
11 10 10 10 10 11 12 13 15 17 18 17 19 20 20 18 18 16 15 15 15 16 19 21 21 19 19 19 18 17 18 21 21 19 17 15 14 14 14 14 12 12 12 12 12 12 11 11 12 13 13 12 13 14 13 13 15 18 18 17 16 16 15
11 11 10 10 10 11 12 14 15 17 19 20 20 21 20 18 15 13 13 14 14 16 18 18 17 17 17 16 16 16 17 19 18 15 14 12 12 15 17 17 14 14 16 16 16 15 14 13 13 15 14 13 15 16 15 15 17 19 18 18 17 16 16
11 10 9 9 10 10 12 14 15 16 17 18 18 18 17 16 15 12 10 10 12 15 16 15 15 15 14 13 13 14 14 13 11 10 10 11 12 15 18 19 19 19 20 20 18 17 17 16 15 15 15 14 15 16 15 16 17 18 17 17 17 16 15
9 9 8 9 9 10 12 14 15 15 15 15 15 14 13 12 12 11 10 10 12 14 15 16 16 15 13 12 13 14 15 13 11 11 11 11 12 14 17 19 19 20 20 20 18 18 18 16 14 14 15 13 13 15 16 15 16 16 16 17 16 14 13
9 8 8 9 10 12 13 13 14 14 14 13 12 11 10 9 10 10 10 12 14 14 14 15 15 13 12 12 12 14 16 16 14 13 13 12 13 17 20 22 22 21 20 19 18 18 17 15 14 14 14 13 13 14 15 14 14 15 15 15 15 14 12
Wind_Direction
194 193 194 192 192 192 192 194 197 201 207 207 207 209 209 213 220 224 228 234 246 258 267 274 281 288 294 296 299 304 308 311 311 307 300 300 304 306 309 312 315 316 317 318 321 323 324 325 328 326 322 320 322 324 324 324 325 324 322 320 315 309 306
195 192 192 191 191 192 190 193 195 198 205 206 207 208 208 215 223 225 232 238 242 253 260 268 277 286 291 293 295 302 308 310 311 308 302 301 304 308 313 315 316 316 315 315 317 320 323 325 325 324 322 321 322 323 323 324 324 323 322 320 318 315 312
196 191 190 190 192 191 189 193 195 196 200 201 202 206 210 217 223 225 233 236 238 247 256 265 277 285 289 290 294 302 309 310 309 305 300 297 299 309 317 321 321 317 315 316 317 320 323 324 325 324 322 322 321 322 324 325 323 321 320 318 316 314 312
196 190 188 189 192 190 189 195 198 195 194 195 198 204 210 216 220 224 229 231 237 247 257 268 279 285 288 290 294 302 307 307 307 304 299 297 301 313 323 328 329 324 320 320 319 322 324 324 325 325 323 322 322 322 324 324 322 321 320 318 316 313 311
193 189 186 188 192 190 190 196 199 196 191 191 197 204 209 215 219 222 225 228 237 248 260 272 281 284 286 289 292 299 304 303 304 304 300 299 305 319 330 334 334 331 328 327 325 326 327 325 325 325 322 321 321 321 322 321 319 318 316 315 315 313 310
191 189 186 188 191 190 191 196 198 195 191 189 196 202 206 213 214 214 222 230 238 250 265 276 281 283 284 286 292 297 301 301 301 302 300 299 307 320 329 329 327 327 329 330 329 328 329 327 326 325 321 317 317 318 321 323 321 315 313 313 313 313 313
191 189 189 190 191 191 192 193 194 194 192 191 196 201 201 205 206 204 216 231 241 253 269 276 278 280 281 283 290 296 298 297 297 299 298 297 305 314 319 320 319 320 324 326 326 326 327 327 325 323 319 316 314 314 319 326 325 319 315 313 314 315 316
192 191 191 191 191 192 190 191 192 191 190 191 195 196 196 199 202 202 211 224 233 241 254 260 264 275 281 282 287 293 295 292 291 294 294 293 300 306 310 312 313 313 317 320 322 324 323 322 323 322 319 315 312 310 315 324 326 324 320 317 317 318 317
191 192 193 191 191 190 189 190 190 187 190 195 196 195 199 202 202 203 211 221 227 234 244 246 249 267 280 285 287 291 293 291 290 291 290 290 294 295 298 303 306 310 316 318 319 319 317 316 317 319 319 317 313 310 312 319 325 327 326 322 319 319 318
188 190 191 189 189 188 188 188 187 191 197 201 200 199 204 209 207 207 213 221 228 237 246 247 246 255 273 286 290 291 292 291 289 289 285 284 286 289 295 300 301 305 311 315 317 315 312 312 312 314 317 318 317 313 311 313 315 319 323 323 321 320 318
188 187 187 187 187 187 187 187 193 200 203 202 200 201 207 211 211 214 219 221 227 238 243 246 248 252 266 282 287 287 290 288 283 281 280 280 282 287 294 298 300 304 309 315 319 317 314 311 309 310 314 317 317 313 311 311 310 311 316 319 323 324 322
188 186 186 186 186 186 186 191 201 207 204 199 200 203 208 211 210 216 222 220 226 237 240 243 248 253 263 273 275 278 284 282 274 273 275 277 281 287 294 298 302 306 309 311 313 312 312 309 305 305 309 313 315 313 311 312 310 308 309 312 320 324 324
191 189 190 188 188 188 190 199 207 208 202 199 200 204 208 210 211 216 219 220 232 242 244 249 254 259 268 271 269 274 279 275 269 270 273 276 283 291 296 299 300 302 305 307 308 308 308 307 306 305 303 305 311 313 314 313 311 308 306 308 316 320 322
196 194 194 191 191 193 197 205 208 206 201 199 201 205 208 210 212 217 218 223 240 246 245 253 259 264 272 276 275 279 280 273 268 269 274 280 288 295 300 302 304 304 305 307 307 305 305 307 308 308 305 305 308 312 313 313 313 311 307 308 312 315 318
199 196 195 193 194 197 203 207 207 203 201 200 202 205 208 211 215 217 218 229 244 246 244 253 262 265 269 275 279 281 280 274 271 272 278 286 292 297 303 308 307 305 304 304 304 303 304 305 307 310 310 309 309 310 312 313 314 313 310 309 310 311 314
202 200 199 197 197 200 204 206 204 201 200 202 203 205 209 215 217 216 220 233 243 247 251 258 262 263 265 272 278 278 278 277 274 275 281 287 292 298 305 308 306 304 304 304 302 299 301 304 308 312 311 308 307 308 310 312 314 315 313 309 306 307 312
207 205 203 200 198 198 199 201 201 201 202 203 202 205 214 218 217 216 222 231 235 242 256 261 258 258 263 270 273 274 277 276 273 276 282 288 293 300 306 307 306 307 307 305 302 301 302 306 309 312 310 306 305 305 308 310 313 317 315 307 303 306 311
213 208 202 199 198 196 196 197 199 201 203 203 203 208 216 218 216 217 224 230 231 235 249 256 254 255 260 264 267 272 275 272 271 275 281 287 295 302 306 307 308 310 308 305 303 302 303 305 307 309 309 305 302 303 306 308 311 317 315 306 302 305 311
218 210 204 200 197 196 196 196 198 202 203 203 204 211 217 217 216 220 226 230 231 234 244 251 250 251 255 260 265 271 274 272 271 275 280 287 295 301 305 306 309 311 308 303 302 303 305 307 307 306 305 302 301 304 307 308 315 321 318 308 302 305 312
221 212 206 203 198 196 196 195 198 203 204 204 207 213 218 218 218 224 227 227 229 236 244 247 246 247 252 259 266 271 275 276 275 278 281 287 293 299 301 303 306 308 307 305 305 307 309 310 309 306 306 306 304 305 307 310 317 325 322 312 303 302 310
217 210 204 202 196 194 195 197 200 203 203 205 209 214 218 219 220 225 227 225 227 235 243 245 242 242 249 258 265 271 276 279 278 279 282 286 291 295 296 297 302 306 308 308 308 309 310 312 313 312 311 311 308 306 306 307 314 324 325 314 302 300 308
208 204 201 198 195 195 197 199 202 203 203 206 210 215 219 221 222 226 227 225 226 233 241 242 240 240 247 256 264 270 275 276 276 277 280 282 284 286 289 292 297 302 307 310 311 311 312 314 315 315 314 314 310 307 307 307 313 322 326 315 301 298 306
189 195 195 194 197 198 198 199 200 202 205 208 213 218 221 225 226 228 227 225 225 231 238 241 240 239 245 254 261 267 269 270 272 272 273 274 274 277 284 289 294 300 305 308 311 311 310 313 315 316 316 316 312 308 307 309 312 318 324 318 303 298 306
170 183 184 187 195 197 196 197 199 202 207 212 219 223 226 229 230 231 232 229 227 230 236 241 242 239 243 252 257 259 263 268 271 270 268 266 267 272 279 284 290 298 302 305 308 308 308 311 313 315 317 317 314 309 308 310 310 313 321 321 306 302 309
158 174 179 180 187 191 193 195 198 204 211 217 223 227 230 235 235 235 237 236 230 228 233 241 244 240 241 249 251 254 265 272 273 270 265 261 261 266 274 281 288 295 299 302 304 304 306 309 310 313 316 316 314 311 311 312 310 311 319 322 312 307 310
160 168 171 174 181 187 192 196 201 209 216 221 228 232 236 241 240 239 241 240 234 229 232 241 245 240 238 245 249 255 269 278 277 275 269 261 259 262 269 277 284 288 292 296 299 299 302 308 311 313 314 315 316 314 311 311 310 310 316 319 314 311 311
160 162 165 174 184 188 194 201 207 215 222 227 234 237 241 246 247 244 244 243 239 234 234 240 245 241 239 245 250 258 270 279 280 280 273 262 257 259 264 271 276 279 283 291 295 295 300 307 311 313 315 315 316 314 309 310 316 315 314 314 315 313 314
162 164 169 180 187 191 200 209 214 221 228 235 240 243 247 252 254 252 248 245 244 242 238 240 246 246 243 246 252 258 268 277 281 281 274 263 259 261 264 267 270 273 277 284 290 293 300 307 310 312 315 315 316 316 309 309 319 320 313 310 313 314 317
166 171 178 185 191 198 207 214 221 228 234 239 245 250 252 255 259 260 256 252 252 249 242 241 246 249 247 248 253 257 263 273 280 280 275 267 263 263 264 263 264 268 272 280 288 292 298 306 309 310 313 313 316 320 314 308 317 322 316 310 309 312 318
173 180 185 188 196 207 212 219 229 236 241 246 252 257 260 262 265 266 264 264 262 253 244 242 246 250 249 249 253 256 260 267 271 273 275 275 271 268 263 258 257 260 265 273 280 285 294 303 307 307 311 313 316 321 321 315 316 319 318 315 309 308 313
179 188 193 196 208 218 223 232 241 248 253 259 263 266 269 271 271 271 272 275 268 252 244 243 246 249 249 251 254 254 256 261 265 267 272 275 271 266 259 253 251 254 259 265 270 276 289 300 304 304 308 313 317 321 324 324 321 316 319 322 315 307 307
188 196 202 209 219 228 237 247 253 260 268 274 277 280 281 279 277 276 276 272 262 250 245 245 247 248 247 249 252 252 252 258 262 267 275 276 268 260 253 247 246 249 253 259 265 272 283 295 301 303 306 311 316 320 324 327 323 316 320 325 323 315 309
192 196 203 214 225 235 245 254 263 273 282 286 286 286 286 283 283 282 276 264 254 250 249 247 246 246 248 251 253 250 252 259 263 267 276 274 262 253 248 243 245 249 248 252 258 265 278 290 296 298 304 310 314 318 324 326 319 316 320 324 325 324 318
191 198 207 218 229 240 250 260 269 276 281 283 282 284 285 284 283 281 270 256 244 243 249 249 245 247 254 257 253 247 252 263 269 272 274 267 254 246 241 238 242 246 243 248 258 265 274 286 291 294 302 310 310 313 319 318 313 314 320 323 325 328 327
199 207 214 223 234 247 256 264 270 273 277 281 283 286 288 285 278 269 261 253 241 239 246 251 253 258 260 255 249 249 258 267 272 270 269 262 245 234 230 229 233 239 244 254 265 270 274 281 286 291 299 303 304 308 314 314 312 315 320 323 325 328 329
205 212 221 233 245 256 264 272 279 282 285 287 288 289 290 286 275 260 248 244 241 245 254 261 264 264 259 250 247 250 254 261 265 260 254 253 245 236 231 232 237 243 250 257 263 269 276 282 285 290 296 299 301 307 313 314 315 316 319 322 326 328 330
209 220 232 243 255 266 274 282 288 292 295 296 295 294 293 290 281 268 254 251 258 265 271 272 266 258 253 248 245 244 244 251 261 260 252 249 248 239 232 236 246 251 253 257 262 268 275 280 283 287 292 296 300 308 313 315 316 317 318 322 326 327 331
217 227 240 252 263 271 278 285 291 296 299 300 300 300 298 291 284 276 267 266 271 273 270 266 262 256 252 247 242 247 255 261 260 254 250 248 245 240 238 243 250 251 250 255 263 268 272 276 279 284 290 294 299 307 312 314 317 319 320 322 323 324 329